This demonstration page uses our WeatherBlox Daily Observations layout. Learn more.

Left ArrowRight Arrow

30.21309, -93.2044

Hourly Observations for July 30, 2022

Temp ( °F °C ) Dew Point ( °F °C ) Humidity (%) Winds ( mph kmh ) Pressure ( in mb ) Visibility ( mi km ) Precip ( " mm )
12:15 am 00:15 Clear 79 25.9 76 24.3 91 91 ESE 3 6 30.08 1019 10 16 0.00 0.00
12:35 am 00:35 Clear 78 25.4 76 24.2 93 93 SE 5 7 30.07 1018 10 16 0.00 0.00
12:55 am 00:55 Clear 78 25.8 76 24.4 92 92 SSE 6 9 30.07 1018 10 16 0.00 0.00
1:15 am 01:15 Clear 78 25.8 76 24.4 92 92 SSE 7 11 30.07 1018 10 16 0.00 0.00
1:35 am 01:35 Clear 78 25.7 76 24.4 93 93 SSE 6 9 30.07 1018 10 16 0.00 0.00
1:55 am 01:55 Clear 78 25.5 76 24.2 93 93 S 6 9 30.06 1018 10 16 0.00 0.00
2:15 am 02:15 Clear 79 26.3 76 24.6 90 90 S 7 11 30.06 1018 10 16 0.00 0.00
2:35 am 02:35 Clear 79 26.2 76 24.6 91 91 S 5 7 30.06 1018 10 16 0.00 0.00
2:55 am 02:55 Clear 79 26.1 76 24.6 91 91 S 5 7 30.06 1018 10 16 0.00 0.00
3:15 am 03:15 Clear 79 26 76 24.6 92 92 S 5 7 30.06 1018 10 16 0.00 0.00
3:35 am 03:35 Clear 78 25.7 76 24.4 93 93 SSE 3 6 30.05 1018 10 16 0.00 0.00
3:55 am 03:55 Clear 78 25.7 76 24.5 93 93 Calm 30.06 1018 10 16 0.00 0.00
4:15 am 04:15 Clear 79 25.9 76 24.5 92 92 Calm 30.06 1018 10 16 0.00 0.00
4:35 am 04:35 Clear 79 25.9 76 24.7 93 93 Calm 30.06 1018 10 16 0.00 0.00
4:55 am 04:55 Clear 80 26.4 76 24.4 89 89 Calm 30.07 1018 10 16 0.00 0.00
5:15 am 05:15 Clear 79 26 76 24.5 91 91 Calm 30.07 1018 10 16 0.00 0.00
5:35 am 05:35 Clear 78 25.8 76 24.6 93 93 NE 3 6 30.08 1019 10 16 0.00 0.00
6:00 am 06:00 Partly Cloudy 79 26 75 24 89 89 Calm 30.08 1019 10 16 0.00 0.00
6:45 am 06:45 Partly Cloudy 79 26 75 24 89 89 ENE 5 7 30.10 1019 10 16 0.00 0.00
7:54 am 07:54 Partly Cloudy with Thunderstorms 81 27 77 25 89 89 NNE 6 9 30.10 1019 10 16 0.00 0.00
8:28 am 08:28 Mostly Cloudy with Thunderstorms 75 24 70 21 83 83 S 26 43 30.15 1021 4 6 0.00 0.00
8:55 am 08:55 Mostly Cloudy with Thunderstorms 75 24 73 23 94 94 SSW 12 19 30.14 1021 2 3 0.00 0.00
9:55 am 09:55 Mostly Cloudy with Rain 73 23 70 21 89 89 ESE 9 15 30.15 1021 7 11 0.00 0.00
10:51 am 10:51 Cloudy with Mist and Fog 73 23 70 21 89 89 ESE 6 9 30.17 1022 10 16 0.00 0.00
11:45 am 11:45 Mostly Cloudy with Light Rain 75 24 72 22 89 89 E 6 9 30.15 1021 10 16 0.00 0.00
12:46 pm 12:46 Cloudy 77 25 72 22 83 83 S 6 9 30.15 1021 10 16 0.00 0.00
1:48 pm 13:48 Mostly Sunny 81 27 72 22 74 74 Calm 30.14 1021 10 16 0.00 0.00
2:45 pm 14:45 Mostly Sunny 86 30 73 23 66 66 Calm 30.12 1020 10 16 0.00 0.00
3:50 pm 15:50 Mostly Sunny 88 31 73 23 62 62 Calm 30.09 1019 10 16 0.00 0.00
4:53 pm 16:53 Partly Cloudy 88 31 72 22 59 59 S 8 13 30.07 1018 10 16 0.00 0.00
5:55 pm 17:55 Partly Cloudy 88 31 75 24 66 66 S 12 19 30.08 1019 10 16 0.00 0.00
6:47 pm 18:47 Partly Cloudy 86 30 73 23 66 66 S 8 13 30.08 1019 10 16 0.00 0.00
7:50 pm 19:50 Mostly Sunny 84 29 75 24 74 74 S 6 9 30.09 1019 10 16 0.00 0.00
8:49 pm 20:49 Mostly Clear 79 26 75 24 89 89 SSE 6 9 30.10 1019 10 16 0.00 0.00
9:45 pm 21:45 Mostly Clear 79 26 75 24 89 89 SSE 6 9 30.12 1020 10 16 0.00 0.00
10:15 pm 22:15 Clear 78 25.7 75 23.9 90 90 SE 5 7 30.13 1020 10 16 0.00 0.00
10:35 pm 22:35 Clear 78 25.3 75 23.8 91 91 SE 5 7 30.13 1020 10 16 0.00 0.00
10:55 pm 22:55 Clear 78 25.4 75 24.1 93 93 SE 5 7 30.13 1020 10 16 0.00 0.00
11:15 pm 23:15 Clear 78 25.5 75 24 91 91 SE 6 9 30.13 1020 10 16 0.00 0.00
11:35 pm 23:35 Clear 78 25.6 75 24.1 91 91 ESE 5 7 30.13 1020 10 16 0.00 0.00
11:55 pm 23:55 Clear 78 25.3 75 24.1 93 93 ESE 6 9 30.12 1020 10 16 0.00 0.00

Powered by AerisWeather